Station Historical Data
 
Daily Summary for May 25, 2019 Units:  Metric    English   Both
« Previous Day
Next Day »
Daily Weekly Monthly Yearly Custom
  Current: High: Low: Average:
Temperature: 15.7 °C 16.4 °C 15.7 °C 16.1 °C
Dew Point: 12.4 °C 12.8 °C 12.2 °C 12.5 °C
Humidity: 81% 82% 76% 79%
Wind Speed: 3.2km/h 4.8km/h 1.6km/h 3.7km/h
Wind Gust: 14.5km/h 19.3km/h - -
WindNNW - - SW
Pressure: 1012.7 hPa 1013.4 hPa 1012.7 hPa -
Precipitation: 0.0 mm      
Historical Graphs
 
 
Tabular Data for May 25, 2019
Time Temperature Dew Point Pressure Wind Wind Speed Wind Gust Humidity Rainfall Rate (Hourly) solar Conditions
00:00 16.4 °C 12.2 °C 1013.2 hPa North 4.8 km/h 9.7 km/h 76% 0.0 mm 0.00 W/m2 RA
00:10 16.4 °C 12.4 °C 1013.2 hPa North 4.8 km/h 8.0 km/h 77% 0.0 mm 0.00 W/m2 CLR
00:15 16.4 °C 12.4 °C 1013.2 hPa NNW 3.2 km/h 8.0 km/h 77% 0.0 mm 0.00 W/m2 CLR
00:20 16.4 °C 12.4 °C 1013.3 hPa NNW 3.2 km/h 6.4 km/h 77% 0.0 mm 0.00 W/m2 CLR
00:25 16.4 °C 12.6 °C 1013.3 hPa North 3.2 km/h 8.0 km/h 78% 0.0 mm 0.00 W/m2 CLR
00:30 16.3 °C 12.4 °C 1013.4 hPa North 3.2 km/h 9.7 km/h 78% 0.0 mm 0.00 W/m2 CLR
00:35 16.2 °C 12.6 °C 1013.4 hPa North 3.2 km/h 9.7 km/h 79% 0.0 mm 0.00 W/m2 CLR
00:40 16.2 °C 12.5 °C 1013.3 hPa NNE 4.8 km/h 8.0 km/h 79% 0.0 mm 0.00 W/m2 CLR
00:45 16.1 °C 12.4 °C 1013.3 hPa NNE 3.2 km/h 6.4 km/h 79% 0.0 mm 0.00 W/m2 CLR
00:55 16.0 °C 12.3 °C 1013.4 hPa North 3.2 km/h 9.7 km/h 79% 0.0 mm 0.00 W/m2 CLR
01:00 16.0 °C 12.2 °C 1013.3 hPa West 1.6 km/h 12.9 km/h 78% 0.0 mm 0.00 W/m2 CLR
01:05 16.1 °C 12.2 °C 1013.4 hPa NW 4.8 km/h 12.9 km/h 78% 0.0 mm 0.00 W/m2 CLR
01:15 16.2 °C 12.4 °C 1013.4 hPa NE 4.8 km/h 19.3 km/h 78% 0.0 mm 0.00 W/m2 CLR
01:20 16.3 °C 12.6 °C 1013.3 hPa NW 1.6 km/h 16.1 km/h 79% 0.0 mm 0.00 W/m2 CLR
01:25 16.3 °C 12.6 °C 1013.3 hPa NW 3.2 km/h 6.4 km/h 79% 0.0 mm 0.00 W/m2 CLR
01:30 16.2 °C 12.8 °C 1013.2 hPa North 4.8 km/h 14.5 km/h 80% 0.0 mm 0.00 W/m2 CLR
01:40 16.0 °C 12.6 °C 1013.2 hPa North 4.8 km/h 12.9 km/h 80% 0.0 mm 0.00 W/m2 CLR
01:45 15.9 °C 12.5 °C 1013.2 hPa NNW 4.8 km/h 14.5 km/h 80% 0.0 mm 0.00 W/m2 CLR
01:55 16.0 °C 12.6 °C 1013.1 hPa North 4.8 km/h 12.9 km/h 80% 0.0 mm 0.00 W/m2 CLR
02:05 15.9 °C 12.6 °C 1013.0 hPa NNW 3.2 km/h 8.0 km/h 81% 0.0 mm 0.00 W/m2 CLR
02:10 15.8 °C 12.6 °C 1013.0 hPa North 3.2 km/h 6.4 km/h 81% 0.0 mm 0.00 W/m2 CLR
02:15 15.8 °C 12.6 °C 1013.0 hPa NNE 3.2 km/h 8.0 km/h 81% 0.0 mm 0.00 W/m2 CLR
02:25 15.7 °C 12.7 °C 1012.9 hPa North 3.2 km/h 11.3 km/h 82% 0.0 mm 0.00 W/m2 CLR
02:35 15.7 °C 12.6 °C 1012.8 hPa North 4.8 km/h 9.7 km/h 82% 0.0 mm 0.00 W/m2 CLR
02:45 15.7 °C 12.4 °C 1012.7 hPa NNW 3.2 km/h 14.5 km/h 81% 0.0 mm 0.00 W/m2 CLR
Juneau County Weather
Compliments of Weather Underground - 12.5 mb

temps passé